Location: Unspecified
(0.0000°N, 0.0000°E)
Time: 00:30:52
(UTC+00:00)

ISS - Visible Passes

Search period start: 07 May 2021 00:00
Search period end: 17 May 2021 00:00
Orbit: 418 x 421 km, 51.6° (Epoch: 06 May)

Date Brightness Start Highest point End Pass type
(mag) Time Alt. Az. Time Alt. Az. Time Alt. Az.
11 May -1.0 19:48:43 10° SW 19:49:27 15° WSW 19:49:27 15° WSW visible
12 May -3.9 19:01:10 10° SSW 19:04:31 79° SE 19:07:25 13° NE visible
14 May -0.6 19:04:00 10° W 19:06:19 18° NW 19:08:39 10° N visible
